This demonstration page uses our WeatherBlox Daily Observations layout. Learn more.

Left ArrowRight Arrow

Hourly Observations for October 21, 2022

Temp ( °F °C ) Dew Point ( °F °C ) Humidity (%) Winds ( mph kmh ) Pressure ( in mb ) Visibility ( mi km ) Precip ( " mm )
12:15 am 00:15 Cloudy 46 8 36 2 66 66 Calm 30.06 1018 10 16 0.00 0.00
12:35 am 00:35 Cloudy 45 7 36 2 70 70 Calm 30.06 1018 10 16 0.00 0.00
12:55 am 00:55 Mostly Cloudy 45 7 37 3 76 76 Calm 30.06 1018 10 16 0.00 0.00
1:15 am 01:15 Partly Cloudy 43 6 36 2 75 75 Calm 30.07 1018 10 16 0.00 0.00
1:35 am 01:35 Clear 43 6 37 3 81 81 Calm 30.07 1018 10 16 0.00 0.00
1:55 am 01:55 Clear 41 5 37 3 87 87 Calm 30.08 1019 10 16 0.00 0.00
2:15 am 02:15 Clear 37 3 36 2 93 93 Calm 30.08 1018 10 16 0.00 0.00
2:35 am 02:35 Clear 37 3 36 2 93 93 Calm 30.08 1018 10 16 0.00 0.00
2:55 am 02:55 Clear 37 3 36 2 93 93 NW 3 6 30.08 1018 10 16 0.00 0.00
3:15 am 03:15 Clear 37 3 36 2 93 93 Calm 30.08 1018 10 16 0.00 0.00
3:35 am 03:35 Clear 37 3 36 2 93 93 Calm 30.08 1018 10 16 0.00 0.00
3:55 am 03:55 Clear 36 2 36 2 100 100 NNW 5 7 30.08 1019 10 16 0.00 0.00
4:15 am 04:15 Clear 37 3 36 2 93 93 Calm 30.08 1018 10 16 0.00 0.00
4:35 am 04:35 Clear 36 2 34 1 93 93 Calm 30.09 1019 10 16 0.00 0.00
4:55 am 04:55 Clear 36 2 34 1 93 93 Calm 30.10 1019 10 16 0.00 0.00
5:15 am 05:15 Clear 36 2 34 1 93 93 Calm 30.11 1020 10 16 0.00 0.00
5:35 am 05:35 Clear 36 2 34 1 93 93 Calm 30.11 1020 10 16 0.00 0.00
5:55 am 05:55 Clear 34 1 34 1 100 100 Calm 30.12 1020 10 16 0.00 0.00
6:15 am 06:15 Clear 36 2 34 1 93 93 Calm 30.13 1020 10 16 0.00 0.00
6:35 am 06:35 Clear 34 1 34 1 100 100 Calm 30.14 1021 10 16 0.00 0.00
6:55 am 06:55 Clear 34 1 34 1 100 100 N 3 6 30.14 1021 10 16 0.00 0.00
7:15 am 07:15 Clear 36 2 34 1 93 93 Calm 30.15 1021 10 16 0.00 0.00
7:35 am 07:35 Sunny 34 1 34 1 100 100 Calm 30.15 1021 10 16 0.00 0.00
7:55 am 07:55 Sunny 34 1 34 1 100 100 Calm 30.16 1021 10 16 0.00 0.00
8:15 am 08:15 Sunny 34 1 34 1 100 100 Calm 30.17 1022 10 16 0.00 0.00
8:35 am 08:35 Sunny 37 3 36 2 93 93 Calm 30.17 1022 10 16 0.00 0.00
8:55 am 08:55 Sunny 41 5 36 2 81 81 Calm 30.17 1022 10 16 0.00 0.00
9:15 am 09:15 Sunny 45 7 37 3 76 76 Calm 30.18 1022 10 16 0.00 0.00
9:35 am 09:35 Sunny 45 7 37 3 76 76 Calm 30.19 1022 10 16 0.00 0.00
9:55 am 09:55 Sunny 46 8 36 2 66 66 Calm 30.19 1022 10 16 0.00 0.00
10:15 am 10:15 Sunny 50 10 39 4 66 66 Calm 30.19 1022 10 16 0.00 0.00
10:35 am 10:35 Sunny 52 11 37 3 58 58 Calm 30.18 1022 10 16 0.00 0.00
10:55 am 10:55 Sunny 54 12 37 3 54 54 Calm 30.18 1022 10 16 0.00 0.00
11:15 am 11:15 Sunny 55 13 34 1 44 44 Calm 30.18 1022 10 16 0.00 0.00
11:35 am 11:35 Sunny 59 15 36 2 41 41 ESE 3 6 30.18 1022 10 16 0.00 0.00
11:55 am 11:55 Sunny 59 15 36 2 41 41 Calm 30.18 1022 10 16 0.00 0.00
12:15 pm 12:15 Sunny 61 16 34 1 36 36 Calm 30.18 1022 10 16 0.00 0.00
12:35 pm 12:35 Sunny 63 17 32 0 32 32 Calm 30.17 1022 10 16 0.00 0.00
12:55 pm 12:55 Sunny 63 17 32 0 32 32 Calm 30.17 1022 10 16 0.00 0.00
1:15 pm 13:15 Sunny 63 17 34 1 34 34 SSE 6 9 30.16 1021 10 16 0.00 0.00
1:35 pm 13:35 Sunny 63 17 32 0 32 32 Calm 30.15 1021 10 16 0.00 0.00
1:55 pm 13:55 Sunny 63 17 32 0 32 32 S 5 7 30.15 1021 10 16 0.00 0.00
2:15 pm 14:15 Sunny 63 17 32 0 32 32 S 8 13 30.13 1020 7 11 0.00 0.00
2:55 pm 14:55 Sunny 64 18 34 1 32 32 S 8 13 30.12 1020 10 16 0.00 0.00
3:15 pm 15:15 Sunny 64 18 32 0 30 30 S 5 7 30.12 1020 10 16 0.00 0.00
3:35 pm 15:35 Sunny 66 19 34 1 30 30 SSW 7 11 30.11 1020 10 16 0.00 0.00
3:55 pm 15:55 Sunny 64 18 34 1 32 32 SSE 8 13 30.12 1020 10 16 0.00 0.00
4:15 pm 16:15 Sunny 64 18 34 1 32 32 WSW 6 9 30.12 1020 10 16 0.00 0.00
4:35 pm 16:35 Sunny 64 18 32 0 30 30 S 5 7 30.12 1020 10 16 0.00 0.00
4:55 pm 16:55 Sunny 64 18 32 0 30 30 SSW 5 7 30.12 1020 10 16 0.00 0.00
5:15 pm 17:15 Sunny 64 18 34 1 32 32 SSW 6 9 30.12 1020 10 16 0.00 0.00
5:35 pm 17:35 Sunny 64 18 34 1 32 32 SSW 6 9 30.12 1020 10 16 0.00 0.00
5:55 pm 17:55 Sunny 63 17 34 1 34 34 S 5 7 30.12 1020 10 16 0.00 0.00
6:15 pm 18:15 Sunny 63 17 34 1 34 34 SSE 6 9 30.12 1020 10 16 0.00 0.00
6:35 pm 18:35 Clear 61 16 34 1 36 36 SSE 7 11 30.12 1020 10 16 0.00 0.00
6:55 pm 18:55 Clear 61 16 34 1 36 36 SSE 6 9 30.12 1020 10 16 0.00 0.00
7:15 pm 19:15 Clear 59 15 34 1 39 39 S 6 9 30.13 1020 10 16 0.00 0.00
7:35 pm 19:35 Clear 55 13 36 2 47 47 SSE 7 11 30.13 1020 10 16 0.00 0.00
7:55 pm 19:55 Clear 54 12 36 2 50 50 S 6 9 30.13 1020 10 16 0.00 0.00
8:15 pm 20:15 Clear 54 12 36 2 50 50 S 5 7 30.14 1021 10 16 0.00 0.00
8:35 pm 20:35 Clear 50 10 39 4 66 66 S 3 6 30.15 1021 10 16 0.00 0.00
8:55 pm 20:55 Clear 50 10 37 3 62 62 SSW 5 7 30.16 1021 10 16 0.00 0.00
9:15 pm 21:15 Clear 48 9 37 3 66 66 SSW 7 11 30.16 1021 10 16 0.00 0.00
9:35 pm 21:35 Clear 50 10 37 3 62 62 SSW 5 7 30.17 1022 10 16 0.00 0.00
9:55 pm 21:55 Clear 50 10 37 3 62 62 SSW 3 6 30.17 1022 10 16 0.00 0.00
10:15 pm 22:15 Clear 52 11 36 2 54 54 S 5 7 30.18 1022 10 16 0.00 0.00
10:35 pm 22:35 Clear 50 10 37 3 62 62 S 5 7 30.19 1022 10 16 0.00 0.00
10:55 pm 22:55 Clear 45 7 39 4 81 81 Calm 30.19 1022 10 16 0.00 0.00
11:15 pm 23:15 Clear 43 6 39 4 87 87 Calm 30.19 1022 10 16 0.00 0.00
11:35 pm 23:35 Clear 43 6 37 3 81 81 Calm 30.19 1022 10 16 0.00 0.00
11:55 pm 23:55 Clear 43 6 39 4 87 87 Calm 30.20 1023 10 16 0.00 0.00

Powered by AerisWeather